Montague Island Observation History
Time Wind Speed Temp Pressure Rel. Hum Rain
30/10:00am NNW 3-6 kts 22.1°c 1011.7 hPa 78% 0.2mm
30/09:30am NNW 5-6 kts 20.9°c 1011.6 hPa 86% 0.2mm
30/09:00am NW 5-7 kts 20.6°c 1011.4 hPa 86% 2.4mm
30/08:30am W 4-5 kts 19.4°c 1011.2 hPa 88% 2.4mm
30/08:00am WNW 11-13 kts 19.7°c 1011.1 hPa 91% 2.4mm
30/07:30am NW 9-12 kts 19.5°c 1010.5 hPa 90% 2.4mm
30/07:00am NNW 10-12 kts 19.4°c 1010.3 hPa 90% 2.4mm
30/06:30am NW 7-9 kts 19.5°c 1010.4 hPa 92% 2.4mm
30/06:00am NW 8-10 kts 19.4°c 1010.5 hPa 91% 2.4mm
30/05:30am NW 11-14 kts 19.2°c 1010.6 hPa 92% 2.4mm
30/05:00am NW 10-13 kts 19.1°c 1010.5 hPa 93% 2.4mm
30/04:30am NW 12-16 kts 19.1°c 1010.3 hPa 92% 2.4mm
30/04:00am NNW 13-17 kts 19.5°c 1010.4 hPa 93% 2.4mm
30/03:30am NNW 11-15 kts 19.3°c 1010.7 hPa 95% 2.4mm
30/03:00am NNW 15-19 kts 19.9°c 1011.5 hPa 94% 2.4mm
30/02:30am N 13-17 kts 19.5°c 1011.7 hPa 90% 2.4mm
30/02:00am N 10-13 kts 19.4°c 1012.4 hPa 89% 2.4mm
30/01:30am N 10-13 kts 19.0°c 1012.5 hPa 91% 2.4mm
30/01:00am N 8-10 kts 19.3°c 1012.6 hPa 91% 2.4mm
30/12:30am NNW 9-13 kts 18.9°c 1013.5 hPa 90% 2.4mm
30/12:00am S 5-7 kts 19.1°c 1013.2 hPa 90% 2.2mm
Time Wind Speed Temp Pressure Rel. Hum Rain
29/11:30pm WNW 16-24 kts 20.2°c 1014.9 hPa 89% 0.4mm
29/11:26pm WNW 12-24 kts 20.3°c 1015.0 hPa 89% 0.0mm
29/11:00pm NW 6-10 kts 20.7°c 1014.6 hPa 92% 0.0mm
29/10:30pm N 16-24 kts 21.4°c 1014.5 hPa 93% 0.0mm
29/10:00pm N 22-28 kts 21.4°c 1014.2 hPa 92% 0.0mm
29/09:30pm N 23-29 kts 21.5°c 1014.2 hPa 90% 0.0mm
29/09:00pm N 24-29 kts 21.4°c 1014.2 hPa 91% 0.0mm
29/08:30pm NNE 27-32 kts 21.5°c 1014.1 hPa 89% 0.0mm
29/08:00pm N 29-34 kts 21.5°c 1013.8 hPa 88% 0.0mm
29/07:30pm N 29-35 kts 21.6°c 1013.6 hPa 87% 0.0mm
29/07:00pm N 29-35 kts 21.6°c 1013.4 hPa 86% 0.0mm
29/06:30pm NNE 29-37 kts 21.6°c 1013.0 hPa 85% 0.0mm
29/06:00pm NNE 29-37 kts 21.6°c 1012.7 hPa 86% 0.0mm
29/05:30pm NNE 28-35 kts 21.6°c 1013.0 hPa 86% 0.0mm
29/05:00pm NNE 30-36 kts 21.6°c 1013.3 hPa 85% 0.0mm
29/04:30pm NNE 27-35 kts 21.9°c 1013.6 hPa 82% 0.0mm
29/04:00pm NNE 28-34 kts 22.0°c 1013.9 hPa 83% 0.0mm
29/03:30pm NNE 28-33 kts 22.0°c 1014.3 hPa 82% 0.0mm
29/03:00pm NNE 26-31 kts 21.6°c 1014.9 hPa 84% 0.0mm
29/02:30pm NNE 24-30 kts 21.5°c 1015.3 hPa 83% 0.0mm
29/02:00pm NNE 25-30 kts 21.4°c 1015.9 hPa 82% 0.0mm
29/01:30pm NNE 26-32 kts 21.8°c 1016.6 hPa 83% 0.0mm
29/01:00pm NNE 25-31 kts 21.6°c 1017.3 hPa 87% 0.0mm
29/12:30pm N 26-30 kts 21.4°c 1018.0 hPa 85% 0.0mm
29/12:00pm N 25-29 kts 21.3°c 1018.5 hPa 85% 0.0mm
29/11:30am NNE 24-29 kts 21.0°c 1018.8 hPa 89% 0.0mm
29/11:00am N 20-24 kts 20.6°c 1019.2 hPa 90% 0.0mm
29/10:30am N 14-20 kts 20.6°c 1019.5 hPa 88% 0.0mm
29/10:00am N 13-18 kts 20.1°c 1019.7 hPa 88% 0.0mm
29/09:30am NNW 11-15 kts 19.5°c 1019.7 hPa 90% 0.0mm
29/09:00am NNW 13-18 kts 19.5°c 1019.6 hPa 91% 0.0mm
29/08:30am N 13-18 kts 19.0°c 1019.4 hPa 91% 0.0mm
29/08:00am NNW 12-17 kts 19.2°c 1019.4 hPa 93% 0.0mm
29/07:30am NNW 12-16 kts 18.8°c 1019.0 hPa 94% 0.0mm
29/07:00am NNW 12-17 kts 19.0°c 1018.8 hPa 93% 0.0mm
29/06:30am NNW 11-15 kts 18.8°c 1018.6 hPa 93% 0.0mm
29/06:00am N 13-17 kts 18.8°c 1018.8 hPa 93% 0.0mm
29/05:30am N 10-13 kts 18.7°c 1018.7 hPa 92% 0.0mm
29/05:00am NNW 10-13 kts 18.9°c 1018.9 hPa 92% 0.0mm
29/04:30am N 14-17 kts 19.1°c 1019.1 hPa 91% 0.0mm
29/04:00am N 14-19 kts 19.2°c 1019.2 hPa 90% 0.0mm
29/03:30am N 17-21 kts 19.2°c 1019.5 hPa 88% 0.0mm
29/03:00am N 16-20 kts 19.5°c 1019.7 hPa 87% 0.0mm
29/02:30am NNW 13-18 kts 19.5°c 1020.2 hPa 85% 0.0mm
29/02:00am NNW 14-19 kts 19.8°c 1020.4 hPa 77% 0.0mm
29/01:30am NNW 13-17 kts 19.8°c 1020.8 hPa 75% 0.0mm
29/01:00am NNW 13-17 kts 19.7°c 1020.9 hPa 75% 0.0mm
29/12:30am NNW 13-16 kts 19.9°c 1021.0 hPa 75% 0.0mm
29/12:00am NNW 12-15 kts 19.9°c 1021.3 hPa 74% 0.0mm
Time Wind Speed Temp Pressure Rel. Hum Rain
28/11:30pm NNW 12-14 kts 20.0°c 1021.6 hPa 76% 0.0mm
28/11:00pm NNW 11-17 kts 20.4°c 1021.9 hPa 74% 0.0mm
28/10:30pm N 18-22 kts 21.1°c 1022.0 hPa 66% 0.0mm
28/10:00pm NNE 20-24 kts 21.1°c 1022.1 hPa 66% 0.0mm
28/09:30pm NNE 20-23 kts 21.1°c 1022.2 hPa 66% 0.0mm
28/09:00pm NNE 18-22 kts 21.0°c 1022.4 hPa 69% 0.0mm
28/08:30pm NNE 18-21 kts 21.0°c 1022.1 hPa 69% 0.0mm
28/08:00pm NNE 19-23 kts 21.0°c 1021.8 hPa 71% 0.0mm
28/07:30pm NNE 17-20 kts 20.7°c 1021.7 hPa 76% 0.0mm
28/07:00pm NNE 16-19 kts 20.6°c 1021.7 hPa 81% 0.0mm
28/06:30pm NNE 18-22 kts 20.6°c 1021.6 hPa 76% 0.0mm
28/06:00pm NNE 17-22 kts 20.9°c 1021.4 hPa 75% 0.0mm
28/05:30pm NE 16-19 kts 20.9°c 1021.6 hPa 75% 0.0mm
28/05:00pm NE 15-17 kts 20.7°c 1021.8 hPa 76% 0.0mm
28/04:30pm NE 12-15 kts 20.6°c 1021.9 hPa 76% 0.0mm
28/04:00pm NE 12-15 kts 20.6°c 1022.1 hPa 75% 0.0mm
28/03:30pm NE 12-14 kts 20.2°c 1022.5 hPa 77% 0.0mm
28/03:00pm NE 12-15 kts 20.2°c 1022.8 hPa 80% 0.0mm
28/02:30pm NE 11-16 kts 20.1°c 1023.1 hPa 78% 0.0mm
28/02:00pm NNE 9-13 kts 20.3°c 1023.7 hPa 79% 0.0mm
28/01:30pm NNE 8-9 kts 19.5°c 1024.2 hPa 82% 0.0mm
28/01:00pm N 6-9 kts 19.4°c 1024.8 hPa 84% 0.0mm
28/12:30pm NW 5-7 kts 18.6°c 1025.1 hPa 90% 0.0mm
28/12:00pm NNW 8-12 kts 17.3°c 1025.6 hPa 93% 0.0mm
28/11:30am NNW 9-12 kts 17.3°c 1026.0 hPa 90% 0.0mm
28/11:00am N 6-12 kts 18.1°c 1026.0 hPa 83% 0.0mm
28/10:30am N 12-17 kts 17.5°c 1026.1 hPa 79% 0.0mm
28/10:00am NW 5-7 kts 18.9°c 1025.8 hPa 72% 0.0mm
28/09:30am NW 4-5 kts 19.4°c 1025.7 hPa 71% 0.0mm
28/09:00am WNW 4-5 kts 19.1°c 1025.6 hPa 71% 0.2mm
28/08:30am WNW 4-5 kts 18.6°c 1025.5 hPa 73% 0.2mm
28/08:00am WNW 4-6 kts 17.8°c 1025.3 hPa 78% 0.2mm
28/07:30am WNW 4-5 kts 17.1°c 1025.2 hPa 79% 0.2mm
28/07:00am WNW 4-5 kts 17.0°c 1025.1 hPa 79% 0.2mm
28/06:30am WNW 4-5 kts 17.0°c 1024.8 hPa 81% 0.2mm
28/06:00am WNW 4-6 kts 17.3°c 1024.8 hPa 80% 0.2mm
28/05:30am WNW 6-7 kts 17.5°c 1024.7 hPa 78% 0.2mm
28/05:00am WNW 6-8 kts 17.5°c 1024.7 hPa 79% 0.2mm
28/04:30am WNW 7-9 kts 17.7°c 1024.6 hPa 79% 0.2mm
28/04:00am NW 6-10 kts 17.9°c 1024.5 hPa 78% 0.2mm
28/03:30am NW 7-10 kts 18.1°c 1024.5 hPa 77% 0.2mm
28/03:00am NW 8-10 kts 18.0°c 1024.9 hPa 77% 0.2mm
28/02:30am WNW 8-11 kts 17.9°c 1025.2 hPa 78% 0.2mm
28/02:00am NW 9-12 kts 18.2°c 1025.4 hPa 77% 0.2mm
28/01:30am NW 9-12 kts 18.2°c 1025.5 hPa 77% 0.2mm
28/01:00am NW 9-12 kts 18.4°c 1025.6 hPa 77% 0.2mm
28/12:30am NW 8-11 kts 18.5°c 1025.7 hPa 75% 0.2mm
28/12:00am NNE 11-15 kts 19.3°c 1025.9 hPa 68% 0.2mm